Location: Unspecified
(0.0000°N, 0.0000°E)
Time: 06:37:21
(UTC+02:00)

NOAA 12 - Visible Passes

Search period start: 27 August 2016 00:00
Search period end: 06 September 2016 00:00
Orbit: 795 x 816 km, 98.6° (Epoch: 26 August)

Date Brightness Start Highest point End Pass type
(mag) Time Alt. Az. Time Alt. Az. Time Alt. Az.
27 Aug 5.8 21:47:35 10° SSW 21:52:12 31° WSW 21:56:47 10° NW visible
28 Aug 4.5 21:22:07 10° S 21:27:19 63° WSW 21:32:29 10° NNW visible
29 Aug 4.0 20:57:13 10° SSE 21:02:26 65° ENE 21:07:36 10° N visible
30 Aug 4.8 20:32:53 10° SE 20:37:31 32° ENE 20:42:07 10° NNE visible
30 Aug 6.7 22:13:57 10° SW 22:17:02 16° WSW 22:20:05 10° WNW visible
31 Aug 5.8 21:47:33 10° SSW 21:52:10 31° WSW 21:56:44 10° NW visible
01 Sep 4.5 21:22:05 10° S 21:27:17 63° WSW 21:32:26 10° NNW visible
02 Sep 4.0 20:57:10 10° SSE 21:02:23 65° ENE 21:07:33 10° N visible
03 Sep 4.8 20:32:51 10° SE 20:37:29 32° ENE 20:42:04 10° NNE visible
03 Sep 6.8 22:13:56 10° SW 22:16:59 16° WSW 22:20:02 10° WNW visible
04 Sep 5.8 21:47:31 10° SSW 21:52:07 31° WSW 21:56:41 10° NW visible
05 Sep 4.5 21:22:03 10° S 21:27:14 63° WSW 21:32:23 10° NNW visible
